This demonstration page uses our WeatherBlox Daily Observations layout. Learn more.

Left ArrowRight Arrow

39.01783, -85.05884

Hourly Observations for April 6, 2020

Temp ( °F °C ) Dew Point ( °F °C ) Humidity (%) Winds ( mph kmh ) Pressure ( in mb ) Visibility ( mi km ) Precip ( " mm )
12:52 am 00:52 Cloudy 51 10.6 46 7.8 83 83 NNE 9 15 30.11 1020 8 13 N/A
1:52 am 01:52 Cloudy 51 10.6 45 7.2 80 80 NNE 7 11 30.11 1020 10 16 N/A
2:29 am 02:29 Cloudy 51 10.6 44 6.7 77 77 NNE 6 9 30.13 1020 10 16 N/A
2:52 am 02:52 Cloudy 50 10 44 6.7 80 80 ENE 6 9 30.11 1020 10 16 N/A
3:52 am 03:52 Mostly Cloudy 48 8.9 43 6.1 83 83 E 3 6 30.09 1019 9 14 N/A
4:52 am 04:52 Mostly Cloudy 48 8.9 43 6.1 83 83 E 3 6 30.10 1019 8 13 N/A
4:57 am 04:57 Cloudy 48 8.9 43 6.1 83 83 E 6 9 30.11 1020 8 13 N/A
5:52 am 05:52 Cloudy 48 8.9 43 6.1 83 83 E 6 9 30.09 1019 8 13 N/A
6:52 am 06:52 Cloudy 49 9.4 43 6.1 80 80 NE 5 7 30.10 1019 7 11 N/A
7:52 am 07:52 Cloudy with Haze 48 8.9 43 6.1 83 83 ENE 6 9 30.12 1020 6 10 N/A
8:52 am 08:52 Mostly Cloudy with Haze 49 9.4 43 6.1 80 80 ENE 5 7 30.14 1021 6 10 N/A
9:44 am 09:44 Cloudy 51 10.6 44 6.7 77 77 NNE 3 6 30.16 1021 7 11 N/A
9:52 am 09:52 Cloudy 51 10.6 44 6.7 77 77 E 3 6 30.14 1021 7 11 N/A
11:52 am 11:52 Cloudy 56 13.3 46 7.8 70 70 N N/A 30.13 1020 8 13 N/A
12:52 pm 12:52 Cloudy 59 15 47 8.3 64 64 N 3 6 30.11 1020 8 13 N/A
1:52 pm 13:52 Cloudy 61 16.1 49 9.4 65 65 WNW 5 7 30.09 1019 9 14 N/A
2:52 pm 14:52 Mostly Cloudy 63 17.2 49 9.4 60 60 VRB 3 6 30.06 1018 10 16 N/A
3:05 pm 15:05 Cloudy 64 17.8 50 10 60 60 VRB 6 9 30.05 1018 10 16 N/A
3:52 pm 15:52 Partly Cloudy 64 17.8 49 9.4 58 58 N N/A 30.04 1017 10 16 N/A
4:52 pm 16:52 Partly Cloudy 68 20 49 9.4 51 51 VRB 5 7 30.01 1016 10 16 N/A
5:52 pm 17:52 Partly Cloudy 69 20.6 48 8.9 47 47 WSW 7 11 29.99 1016 10 16 N/A
6:52 pm 18:52 Mostly Cloudy 67 19.4 49 9.4 53 53 W 9 15 29.99 1016 10 16 N/A
7:52 pm 19:52 Mostly Cloudy 67 19.4 49 9.4 53 53 W 3 6 29.99 1016 10 16 N/A
8:52 pm 20:52 Mostly Clear 62 16.7 50 10 65 65 S 5 7 29.98 1015 10 16 N/A
9:52 pm 21:52 Mostly Clear 61 16.1 49 9.4 65 65 SSE 3 6 29.99 1016 10 16 N/A
10:52 pm 22:52 Partly Cloudy 58 14.4 49 9.4 72 72 S 5 7 30.01 1016 9 14 N/A
11:52 pm 23:52 Mostly Clear 58 14.4 49 9.4 72 72 S 3 6 29.99 1016 9 14 N/A

Powered by AerisWeather